Location: Luxembourg
(49.6117°N, 6.1300°E)
Time: 02:10:29
(UTC+01:00)

FO-29 - Visible Passes

Search period start: 25 March 2019 00:00
Search period end: 04 April 2019 01:00
Orbit: 799 x 1322 km, 98.5° (Epoch: 24 March)

Date Brightness Start Highest point End Pass type
(mag) Time Alt. Az. Time Alt. Az. Time Alt. Az.
25 Mar 11.4 02:54:26 10° ESE 02:58:58 24° ENE 03:03:13 10° N visible
25 Mar 9.3 04:37:47 10° S 04:43:46 64° WSW 04:49:11 10° NNW visible
26 Mar 12.3 02:03:57 10° NE 02:04:37 10° NE 02:05:16 10° NE visible
26 Mar 10.0 03:43:00 10° SE 03:48:41 52° ENE 03:53:54 10° N visible
26 Mar 10.2 05:29:06 10° SSW 05:34:04 27° W 05:38:41 10° NW visible
27 Mar 11.5 02:49:40 10° ESE 02:53:57 22° ENE 02:57:59 10° N visible
27 Mar 9.2 04:32:48 10° S 04:38:42 69° WSW 04:44:04 10° NNW visible
28 Mar 10.1 03:38:07 10° SE 03:43:38 48° ENE 03:48:44 10° N visible
28 Mar 10.1 05:24:00 10° SSW 05:28:58 29° W 05:33:37 10° NW visible
29 Mar 11.6 02:44:54 10° ESE 02:48:56 21° ENE 02:52:45 10° NNE visible
29 Mar 9.1 04:27:49 10° S 04:33:37 73° WSW 04:38:57 10° NNW visible
30 Mar 10.3 03:33:13 10° SE 03:38:35 45° ENE 03:43:35 10° N visible
30 Mar 10.0 05:18:54 10° SSW 05:23:53 30° W 05:28:34 10° NNW visible
30 Mar 12.5 19:54:35 10° NW 19:55:28 10° NW 19:56:21 10° WNW visible
31 Mar 11.7 03:40:09 10° E 03:43:54 19° ENE 03:47:31 10° NNE visible
31 Mar 9.1 05:22:50 10° SSE 05:28:32 78° WSW 05:33:50 10° NNW visible
01 Apr 10.4 04:28:19 10° SE 04:33:31 42° ENE 04:38:25 10° N visible
01 Apr 9.9 06:13:47 10° SSW 06:18:47 32° W 06:23:30 10° NNW visible
01 Apr 12.4 20:48:48 10° NNW 20:50:29 11° NW 20:52:11 10° WNW visible
02 Apr 11.7 03:35:23 10° E 03:38:52 18° NE 03:42:16 10° NNE visible
02 Apr 9.1 05:17:50 10° SSE 05:23:27 84° WSW 05:28:42 10° NNW visible
03 Apr 10.5 04:23:25 10° SE 04:28:27 38° ENE 04:33:15 10° N visible
03 Apr 9.8 06:08:40 10° SSW 06:13:41 34° W 06:18:26 10° NNW visible
03 Apr 12.3 20:43:17 10° NNW 20:45:29 13° NW 20:47:46 10° WNW visible
